Hourly Weather Roundup
Issued by NWS Central Illinois

Home | Current Version | Previous Version | Text Only | Print | Product List | Glossary On
Versions: 1 2 3 4 5 6 7 8 9 10 11 12 13 14 15 16 17 18 19 20 21 22 23 24 25 26 27 28 29 30 31 32 33 34 35 36 37 38 39 40 41 42 43 44 45 46 47 48 49 50
000
NZUS43 KILX 031810
HWRILX

AREA WEATHER ROUNDUP
NATIONAL WEATHER SERVICE, LINCOLN IL
1200 PM CST TUE MAR 03 2015


CITY           SKY/WX    TMP DP  RH WIND       PRES   REMARKS
BLOOMINGTON    FOG       35  35 100 SW21      29.71F VSB 3/4 WCI  24
6HR MIN TEMP:  28; 6HR MAX TEMP:  35; 6HR PCP:  0.14;

CHAMPAIGN      LGT RAIN  35  34  96 S18       29.76R VSB 1/2 WCI  24
6HR MIN TEMP:  28; 6HR MAX TEMP:  35; 6HR PCP:  0.04;

DECATUR        FOG       37  36  96 SW15      29.78R VSB 1   WCI  28
6HR MIN TEMP:  30; 6HR MAX TEMP:  37; 6HR PCP:  0.12;

FLORA          DRIZZLE   40  39  97 S18G24    29.84F WCI  30
6HR MIN TEMP:  33; 6HR MAX TEMP:  40;

GALESBURG      CLOUDY    33  33  99 SW16G22   29.71R FOG     WCI  22
JACKSONVILLE   FOG       38  36  94 SW10      29.77S VSB 1   WCI  31
6HR MIN TEMP:  32; 6HR MAX TEMP:  38; 6HR PCP:  0.01;

LACON          CLOUDY    33  32  96 SW9       29.70F FOG     WCI  25
6HR MIN TEMP:  28; 6HR MAX TEMP:  33;

LAWRENCEVILLE  CLOUDY    41  39  93 S16       29.84F FOG     WCI  33
6HR MIN TEMP:  33; 6HR MAX TEMP:  40; 6HR PCP:  0.05;

LITCHFIELD     CLOUDY    35  33  93 S10       29.80R FOG     WCI  27
$$


CITY           SKY/WX    TMP DP  RH WIND       PRES   REMARKS
LINCOLN        CLOUDY    38  36  94 SW8       29.76F FOG     WCI  32
6HR MIN TEMP:  31; 6HR MAX TEMP:  38; 6HR PCP:  0.08;

MACOMB         CLOUDY    34  33  99 SW13      29.76R FOG     WCI  25
MATTOON        SNOW      36  36 100 S14       29.79R VSB 1/4 WCI  27
6HR MIN TEMP:  30; 6HR MAX TEMP:  36; 6HR PCP:  0.06;

MT CARMEL AP   CLOUDY    43  39  87 SW17      29.84F FOG     WCI  35
OLNEY-NOBLE AP CLOUDY    41  39  93 S10       29.84S FOG     WCI  35
PARIS          DRZL/FOG  36  36  98 SW13      29.80R VSB 3/4 WCI  28
6HR MIN TEMP:  29; 6HR MAX TEMP:  36; 6HR PCP:  0.06;

PEORIA         FOG       35  32  88 SW15      29.73S VSB 1   WCI  25
6HR MIN TEMP:  30; 6HR MAX TEMP:  35; 6HR PCP:  0.02;

PONTIAC        CLOUDY    36  35  98 SW15G24   29.70F FOG     WCI  26
RANTOUL        DRIZZLE   37  36  96 SW14G21   29.75S WCI  28
6HR MIN TEMP:  29; 6HR MAX TEMP:  37;

ROBINSON       CLOUDY    39  39  97 S15G23    29.83F FOG     WCI  31
6HR MIN TEMP:  32; 6HR MAX TEMP:  39; 6HR PCP:  0.04;

SPRINGFIELD    CLOUDY    37  35  92 S16       29.76F FOG     WCI  28
6HR MIN TEMP:  30; 6HR MAX TEMP:  37; 6HR PCP:  0.01;

TAYLORVILLE    FOG       36  34  93 S14G21    29.78F VSB 1   WCI  27
$$

...REGIONAL REPORTS...


CITY           SKY/WX    TMP DP  RH WIND       PRES   REMARKS
CHICAGO O`HARE FRZ DRZL  32  30  92 SW20G26   29.65F FOG     WCI  20
KANKAKEE       CLOUDY    33  33  96 SW13G20   29.70F FOG     WCI  24
MOLINE         CLOUDY    33  30  88 SW14      29.70R FOG     WCI  23
MOUNT VERNON   CLOUDY    41  37  87 SW18      29.85F WCI  32
PITTSFIELD     CLOUDY    39  37  94 SW13      29.78R FOG     WCI  31
QUINCY         FOG       37  35  92 SW15      29.76R VSB 1   WCI  28
ROCKFORD       DRIZZLE   32  29  88 SW10      29.66F FOG     WCI  24
$$


CITY           SKY/WX    TMP DP  RH WIND       PRES   REMARKS
BURLINGTON     CLOUDY    34  33  96 SW13      29.72R FOG     WCI  25
CEDAR RAPIDS   CLOUDY    32  31  96 SW14      29.67R FOG     WCI  22
DES MOINES     CLOUDY    35  30  82 NW20      29.73R WCI  24
KIRKSVILLE     CLOUDY    38  38 100 W10       29.74R FOG     WCI  31
OTTUMWA        CLOUDY    34  33  96 W13       29.71S WCI  25
ST LOUIS       DRIZZLE   46  43  87 W7        29.80R FOG
$$


CITY           SKY/WX    TMP DP  RH WIND       PRES   REMARKS
TERRE HAUTE    CLOUDY    37  35  92 S14       29.80F FOG     WCI  28
EVANSVILLE     LGT RAIN  46  44  93 SW15      29.90F FOG
INDIANAPOLIS   DRIZZLE   35  33  92 S13       29.78F FOG     WCI  26
LAFAYETTE      CLOUDY    35  33  92 SW9       29.76F FOG     WCI  28
MADISON        FRZ DRZL  30  27  88 SW6       29.63F FOG     WCI  24
MILWAUKEE      FRZ DRZL  31  27  85 SW15      29.62F VSB 3/4 WCI  20
$$





USA.gov is the U.S. government's official web portal to all federal, state and local government web resources and services.